Weather History for Annette Island, AK

Change the Weather History Date:

Saturday, March 2, 2013

  Actual Average Record
Temperature  
Mean Temperature 39 °F 38 °F  
Max Temperature 43 °F 43 °F 50 °F (2003)
Min Temperature 35 °F 33 °F 4 °F (1955)
Degree Days  
Heating Degree Days 26 27  
Month to date heating degree days 50 54  
Since 1 July heating degree days 4576 4592  
Cooling Degree Days 0    
Month to date cooling degree days 0  
Year to date cooling degree days 0  
Moisture  
Dew Point 36 °F    
Average Humidity 0    
Maximum Humidity 0    
Minimum Humidity 0    
Precipitation  
Precipitation 0.47 in 0.25 in 2.49 in (1979)
Month to date precipitation 0.90 0.50  
Year to date precipitation 22.46 18.54  
Snow  
Snow T in 0.30 in 5.10 in (1972)
Month to date snowfall T 0.6  
Since 1 July snowfall 11.9 27.1  
Snow Depth 0.00 in    
Sea Level Pressure  
Sea Level Pressure 30.01 in    
Wind  
Wind Speed 6 mph (East)    
Max Wind Speed 15 mph    
Max Gust Speed 21 mph    
Visibility 9 miles    
Events Rain , Snow    
T = Trace of Precipitation, MM = Missing Value Source: NWS Daily Summary

Daily Weather History Graph

Daily Weather History Graph

Search for Another Location

Airport:

Trip Planner

Search our weather history database for the weather conditions in past years. The results will help you decide how hot, cold, wet, or windy it might be!

Date:

Astronomy

Mar. 02, 2013 Rise Set
Actual Time 6:32 AM AKST 5:24 PM AKST
Civil Twilight 5:56 AM AKST 6:01 PM AKST
Nautical Twilight 5:14 AM AKST 6:43 PM AKST
Astronomical Twilight 4:32 AM AKST 7:25 PM AKST
Moon No Moon Rise 8:06 AM AKST (3/2)
Length of Visible Light 12h 04m
Length of Day
10h 52m
Waning Gibbous, 72% of the Moon is Illuminated
Mar 2
Waning Gibbous
Mar 4
Last Quarter
Mar 11
New
Mar 19
First Quarter
Mar 27
Full

Hourly Weather History & Observations

Time (AKST) Temp. Windchill Dew Point Humidity Pressure Visibility Wind Dir Wind Speed Gust Speed Precip Events Conditions
12:51 AM 39.2 °F 33.6 °F 35.6 °F 87% 29.99 in 10.0 mi ESE 8.1 mph - 0.00 in Rain Light Rain
12:53 AM 39.0 °F 32.8 °F 36.0 °F 89% 29.99 in 10.0 mi ESE 9.2 mph - 0.00 in Rain Light Rain
1:10 AM 39.2 °F 32.5 °F 35.6 °F 87% 29.99 in 9.0 mi SE 10.4 mph - 0.01 in Rain Light Rain
1:53 AM 39.9 °F 35.1 °F 37.0 °F 89% 29.99 in 10.0 mi ESE 6.9 mph - 0.01 in   Overcast
2:36 AM 39.2 °F 34.2 °F 37.4 °F 93% 29.97 in 10.0 mi ESE 6.9 mph - 0.00 in Rain Light Rain
2:53 AM 39.9 °F 35.1 °F 37.9 °F 93% 29.97 in 10.0 mi ESE 6.9 mph - 0.00 in   Overcast
3:53 AM 39.0 °F 32.3 °F 36.0 °F 89% 29.96 in 10.0 mi ESE 10.4 mph - 0.07 in Rain Light Rain
4:06 AM 39.2 °F 33.6 °F 37.4 °F 93% 29.95 in 10.0 mi ESE 8.1 mph - 0.01 in Rain Light Rain
4:16 AM 39.2 °F 32.5 °F 35.6 °F 87% 29.95 in 10.0 mi ESE 10.4 mph 18.4 mph 0.01 in Rain Light Rain
4:53 AM 39.0 °F 33.4 °F 36.0 °F 89% 29.96 in 9.0 mi East 8.1 mph - 0.03 in Rain Light Rain
5:40 AM 39.2 °F 35.0 °F 35.6 °F 87% 29.95 in 4.0 mi SSE 5.8 mph - 0.05 in Rain Heavy Rain
5:53 AM 39.0 °F 32.8 °F 36.0 °F 89% 29.96 in 5.0 mi SSE 9.2 mph - 0.09 in Rain Rain
6:10 AM 39.2 °F 32.5 °F 35.6 °F 87% 29.95 in 10.0 mi SE 10.4 mph - 0.02 in Rain Light Rain
6:53 AM 37.9 °F 34.4 °F 36.0 °F 93% 29.96 in 10.0 mi East 4.6 mph - 0.03 in   Overcast
7:25 AM 39.2 °F 35.0 °F 35.6 °F 87% 29.95 in 10.0 mi SE 5.8 mph - 0.01 in   Overcast
7:53 AM 39.0 °F 34.0 °F 37.0 °F 93% 29.96 in 7.0 mi SE 6.9 mph - 0.01 in   Overcast
8:51 AM 39.2 °F 34.2 °F 37.4 °F 93% 29.96 in 10.0 mi SE 6.9 mph - 0.01 in   Mostly Cloudy
8:53 AM 39.9 °F 34.5 °F 37.0 °F 89% 29.97 in 10.0 mi SE 8.1 mph - 0.01 in   Mostly Cloudy
9:24 AM 41.0 °F 35.2 °F 37.4 °F 87% 29.96 in 10.0 mi SE 9.2 mph - 0.00 in   Mostly Cloudy
9:53 AM 42.1 °F 38.4 °F 37.0 °F 82% 29.97 in 10.0 mi SE 5.8 mph - 0.00 in   Mostly Cloudy
10:24 AM 42.8 °F 38.6 °F 37.4 °F 81% 29.97 in 10.0 mi SE 6.9 mph - N/A   Overcast
10:48 AM 41.0 °F 38.0 °F 37.4 °F 87% 29.97 in 10.0 mi Variable 4.6 mph - N/A   Overcast
10:53 AM 42.1 °F 38.4 °F 37.9 °F 85% 29.98 in 10.0 mi ESE 5.8 mph - N/A   Overcast
11:25 AM 39.2 °F 34.2 °F 35.6 °F 87% 29.98 in 9.0 mi ESE 6.9 mph - N/A   Overcast
11:53 AM 41.0 °F 37.1 °F 37.0 °F 86% 29.99 in 10.0 mi ESE 5.8 mph - 0.01 in   Overcast
12:53 PM 42.1 °F 38.4 °F 36.0 °F 79% 29.99 in 10.0 mi SE 5.8 mph - 0.01 in   Mostly Cloudy
1:03 PM 42.8 °F 39.3 °F 37.4 °F 81% 29.98 in 10.0 mi SE 5.8 mph - N/A   Scattered Clouds
1:53 PM 42.1 °F 39.2 °F 36.0 °F 79% 29.99 in 10.0 mi Variable 4.6 mph - 0.00 in   Overcast
2:31 PM 37.4 °F 33.8 °F 35.6 °F 93% 30.00 in 1.8 mi NNW 4.6 mph - 0.05 in Rain Heavy Rain
2:45 PM 35.6 °F - 33.8 °F 93% 30.01 in 3.0 mi Calm Calm - 0.13 in Rain Heavy Rain
2:53 PM 35.1 °F - 34.0 °F 96% 30.01 in 3.0 mi Calm Calm - 0.15 in Rain Heavy Rain
3:04 PM 35.6 °F 31.7 °F 33.8 °F 93% 30.00 in 5.0 mi North 4.6 mph - 0.05 in Rain , Snow Rain
3:12 PM 35.6 °F 32.8 °F 33.8 °F 93% 30.00 in 10.0 mi North 3.5 mph - 0.05 in Rain Light Rain
3:24 PM 35.6 °F 30.7 °F 33.8 °F 93% 30.00 in 10.0 mi North 5.8 mph - 0.05 in   Overcast
3:48 PM 35.6 °F 32.8 °F 35.6 °F 100% 30.01 in 5.0 mi NNW 3.5 mph - 0.05 in Rain , Snow Light Rain
3:53 PM 36.0 °F 33.3 °F 34.0 °F 93% 30.02 in 3.0 mi North 3.5 mph - 0.08 in Rain , Snow Light Rain
4:18 PM 35.6 °F 31.7 °F 33.8 °F 93% 30.01 in 10.0 mi NE 4.6 mph - 0.02 in Rain Light Rain
4:36 PM 35.6 °F 32.8 °F 35.6 °F 100% 30.01 in 10.0 mi NE 3.5 mph - 0.02 in   Overcast
4:51 PM 35.6 °F 32.8 °F 35.6 °F 100% 30.01 in 10.0 mi NNW 3.5 mph - 0.02 in   Scattered Clouds
4:53 PM 36.0 °F 33.3 °F 35.1 °F 97% 30.02 in 10.0 mi NNW 3.5 mph - 0.02 in   Scattered Clouds
5:28 PM 35.6 °F - 35.6 °F 100% 30.02 in 10.0 mi Calm Calm - N/A   Mostly Cloudy
5:53 PM 36.0 °F 33.3 °F 34.0 °F 93% 30.04 in 10.0 mi NNW 3.5 mph - N/A   Overcast
6:53 PM 36.0 °F - 35.1 °F 97% 30.06 in 10.0 mi Calm Calm - N/A   Overcast
7:53 PM 36.0 °F - 34.0 °F 93% 30.08 in 10.0 mi Calm Calm - N/A   Overcast
8:28 PM 35.6 °F - 35.6 °F 100% 30.09 in 10.0 mi Calm Calm - N/A   Overcast
8:53 PM 36.0 °F - 35.1 °F 97% 30.11 in 10.0 mi Calm Calm - 0.00 in Rain Light Rain
9:51 PM 35.6 °F - 35.6 °F 100% 30.13 in 10.0 mi Calm Calm - 0.01 in   Overcast
9:53 PM 36.0 °F - 35.1 °F 97% 30.14 in 10.0 mi Calm Calm - 0.01 in   Overcast
10:14 PM 35.6 °F - 35.6 °F 100% 30.14 in 10.0 mi Calm Calm - 0.00 in Rain Light Rain
10:53 PM 33.1 °F - 32.0 °F 96% 30.16 in 10.0 mi Calm Calm - 0.00 in   Mostly Cloudy
11:53 PM 34.0 °F 29.8 °F 33.1 °F 96% 30.18 in 10.0 mi NE 4.6 mph - N/A   Mostly Cloudy